Location: Songkhla
(7.2000°N, 100.6000°E)
Time: 19:22:01
(UTC+07:00)

ISS - Pass Details

Date: 26 April 2026
Orbit: 414 x 424 km, 51.6° (Epoch: 19 May)

Event Time Altitude Azimuth Distance (km) Brightness Sun altitude
Rises 10:54:16 0° 319° (NW) 2,365 0.0 69.1°
Reaches altitude 10° 10:56:22 10° 315° (NW) 1,502 -0.9 69.6°
Maximum altitude 10:59:42 59° 235° (SW) 493 -2.7 70.3°
Drops below altitude 10° 11:03:02 10° 154° (SSE) 1,505 -0.8 71.1°
Sets 11:05:09 0° 150° (SSE) 2,369 0.1 71.6°
